Location: Bridgewater
(44.3670°N, 64.5170°W)
Time: 11:04:55
(UTC-03:00)

Amateur Radio Satellites - All Passes

Search period start: 02 September 2014 10:34
Search period end: 03 September 2014 10:34
Location: Bridgewater, 44.3670°N, 64.5170°W

Satellite Date Start Highest point End Downlink Frequencies (MHz)
Time Altitude Azimuth
RS-15 02 Sep 10:41:16 10:51:14 38° 329° (NNW) 11:01:14 29.354 - 29.394 USB, Beacon 29.352 USB
ISS 02 Sep 10:50:10 10:53:29 85° 148° (SSE) 10:56:50 145.800 FM
UKube-1 02 Sep 10:55:32 10:59:54 83° 104° (ESE) 11:04:15 145.840 MHz, 145.915 MHz
Oscar 11 02 Sep 10:58:47 11:03:08 61° 101° (E) 11:07:27 145.825 FM, Beacon 2401.500 USB
HO-68 02 Sep 11:00:41 11:07:50 73° 290° (WNW) 11:14:57 435.675 MHz FM
SO-50 02 Sep 11:15:13 11:19:24 29° 43° (NE) 11:23:36 436.795 FM
FUNcube-1 02 Sep 11:31:48 11:36:17 57° 100° (E) 11:40:49 145.950 - 145.970 MHz USB
Oscar 16 02 Sep 12:16:38 12:18:36 12° 56° (NE) 12:20:33 437.025 USB, Beacon 2401.1428
MaSat-1 02 Sep 12:21:49 12:25:34 22° 103° (ESE) 12:29:27 437.345 MHz
ISS 02 Sep 12:27:36 12:30:31 27° 347° (NNW) 12:33:27 145.800 FM
UKube-1 02 Sep 12:33:59 12:35:27 12° 301° (WNW) 12:36:55 145.840 MHz, 145.915 MHz
Oscar 11 02 Sep 12:36:22 12:38:50 15° 298° (WNW) 12:41:18 145.825 FM, Beacon 2401.500 USB
HO-68 02 Sep 12:50:12 12:54:22 17° 310° (NW) 12:58:33 435.675 MHz FM
AO-27 02 Sep 12:50:27 12:51:44 11° 55° (NE) 12:53:01 436.795 MHz FM
SO-50 02 Sep 12:55:34 13:00:09 46° 241° (WSW) 13:04:46 436.795 FM
RS-15 02 Sep 12:59:06 13:07:46 26° 3° (N) 13:16:34 29.354 - 29.394 USB, Beacon 29.352 USB
UOSAT-12 02 Sep 12:59:41 13:03:43 27° 41° (NE) 13:07:42 437.025 FM, 437.400 FM
FUNcube-1 02 Sep 13:09:18 13:12:16 17° 297° (WNW) 13:15:15 145.950 - 145.970 MHz USB
Oscar 19 02 Sep 13:17:03 13:21:47 38° 67° (ENE) 13:26:33 437.125 CW, 437.150 USB
AO-Echo 02 Sep 13:23:29 13:27:09 21° 63° (ENE) 13:30:45 ?
JAS-1B 02 Sep 13:23:59 13:32:18 36° 62° (ENE) 13:39:42 435.800 - 435.900 CW/SSB
Gurwin Techsat 1B 02 Sep 13:33:21 13:35:33 13° 56° (NE) 13:37:45 435.225 FM
Oscar 16 02 Sep 13:51:56 13:57:05 79° 74° (ENE) 14:02:18 437.025 USB, Beacon 2401.1428
AO-7 02 Sep 13:53:31 13:56:13 12° 38° (NE) 13:58:55 29.400 - 29.500 MHz
ITAMSAT 1 02 Sep 13:55:50 14:00:35 39° 68° (ENE) 14:05:22 435.822 SSB
MaSat-1 02 Sep 13:57:16 14:02:10 55° 302° (WNW) 14:07:16 437.345 MHz
Uribyol 2 02 Sep 14:04:49 14:09:46 49° 70° (ENE) 14:14:44 436.500 FM
ISS 02 Sep 14:05:10 14:07:57 24° 7° (N) 14:10:44 145.800 FM
TMSAT-1 02 Sep 14:20:41 14:24:48 24° 63° (ENE) 14:28:56 436.925 FM
AO-27 02 Sep 14:25:11 14:30:20 71° 73° (ENE) 14:35:30 436.795 MHz FM
UOSAT-12 02 Sep 14:39:32 14:44:07 50° 241° (WSW) 14:48:37 437.025 FM, 437.400 FM
Oscar 19 02 Sep 14:56:43 15:01:11 29° 265° (W) 15:05:42 437.125 CW, 437.150 USB
AO-Echo 02 Sep 15:00:46 15:05:37 50° 260° (W) 15:10:21 ?
Gurwin Techsat 1B 02 Sep 15:09:21 15:14:40 80° 74° (ENE) 15:20:00 435.225 FM
JAS-1B 02 Sep 15:12:46 15:22:24 65° 258° (WSW) 15:30:56 435.800 - 435.900 CW/SSB
RS-15 02 Sep 15:13:37 15:23:59 43° 37° (NE) 15:34:38 29.354 - 29.394 USB, Beacon 29.352 USB
Oscar 16 02 Sep 15:34:33 15:37:03 14° 272° (W) 15:39:35 437.025 USB, Beacon 2401.1428
ITAMSAT 1 02 Sep 15:35:44 15:40:10 28° 265° (W) 15:44:37 435.822 SSB
MaSat-1 02 Sep 15:38:26 15:40:20 12° 322° (NW) 15:42:14 437.345 MHz
AO-7 02 Sep 15:39:09 15:46:54 45° 60° (ENE) 15:54:39 29.400 - 29.500 MHz
ISS 02 Sep 15:41:51 15:45:09 60° 27° (NNE) 15:48:27 145.800 FM
Uribyol 2 02 Sep 15:45:31 15:49:30 22° 267° (W) 15:53:30 436.500 FM
Uosat F 02 Sep 15:54:08 15:58:32 32° 66° (ENE) 16:02:57 435.120 FM
TMSAT-1 02 Sep 15:59:16 16:04:23 51° 260° (W) 16:09:34 436.925 FM
AO-27 02 Sep 16:07:25 16:10:22 15° 270° (W) 16:13:20 436.795 MHz FM
Sapphire 02 Sep 16:09:08 16:13:25 25° 108° (ESE) 16:17:44 437.095 MHz 1200 baud AX-25 AFSK
PCSat 02 Sep 16:37:13 16:42:21 45° 114° (ESE) 16:47:30 145.825 MHz
Gurwin Techsat 1B 02 Sep 16:52:37 16:55:16 14° 272° (W) 16:57:55 435.225 FM
JAS-1B 02 Sep 17:09:42 17:14:08 14° 276° (W) 17:18:22 435.800 - 435.900 CW/SSB
ISS 02 Sep 17:19:03 17:21:38 21° 224° (SW) 17:24:13 145.800 FM
OPAL 02 Sep 17:24:23 17:29:10 35° 99° (E) 17:33:55 ?
RS-15 02 Sep 17:26:10 17:37:09 71° 242° (WSW) 17:48:34 29.354 - 29.394 USB, Beacon 29.352 USB
AO-7 02 Sep 17:31:45 17:39:39 46° 260° (W) 17:47:36 29.400 - 29.500 MHz
Uosat F 02 Sep 17:32:46 17:37:16 33° 263° (W) 17:41:47 435.120 FM
JAS-2 02 Sep 17:40:54 17:46:19 39° 68° (ENE) 17:51:17 435.800 - 435.900 CW/SSB, 435.910 FM
Sapphire 02 Sep 17:51:13 17:56:30 53° 306° (NW) 18:01:49 437.095 MHz 1200 baud AX-25 AFSK
Hamsat 02 Sep 18:15:47 18:20:06 74° 75° (ENE) 18:24:29 145.90 MHz
PCSat 02 Sep 18:21:06 18:25:55 32° 313° (NW) 18:30:46 145.825 MHz
SO-67 02 Sep 18:39:07 18:41:21 16° 67° (ENE) 18:43:35 435.3500 MHz FM
OPAL 02 Sep 19:03:20 19:07:59 33° 296° (WNW) 19:12:35 ?
STRAND 1 02 Sep 19:13:34 19:17:30 22° 93° (E) 19:21:26 ?
JAS-2 02 Sep 19:26:17 19:31:30 31° 264° (W) 19:36:18 435.800 - 435.900 CW/SSB, 435.910 FM
Sapphire 02 Sep 19:38:43 19:41:13 13° 329° (NNW) 19:43:43 437.095 MHz 1200 baud AX-25 AFSK
RS-15 02 Sep 19:41:22 19:47:25 16° 263° (W) 19:53:37 29.354 - 29.394 USB, Beacon 29.352 USB
HO-68 02 Sep 19:45:22 19:50:35 23° 54° (NE) 19:55:48 435.675 MHz FM
Hamsat 02 Sep 19:55:23 19:56:35 11° 272° (W) 19:57:48 145.90 MHz
SO-67 02 Sep 20:11:01 20:14:09 32° 263° (W) 20:17:19 435.3500 MHz FM
UKube-1 02 Sep 20:20:35 20:21:17 10° 58° (ENE) 20:21:59 145.840 MHz, 145.915 MHz
MaSat-1 02 Sep 20:39:06 20:39:47 10° 36° (NE) 20:40:27 437.345 MHz
STRAND 1 02 Sep 20:52:02 20:56:57 49° 290° (WNW) 21:01:50 ?
HO-68 02 Sep 21:30:20 21:37:29 83° 254° (WSW) 21:44:41 435.675 MHz FM
UKube-1 02 Sep 21:52:25 21:56:46 88° 75° (ENE) 22:01:08 145.840 MHz, 145.915 MHz
Oscar 11 02 Sep 21:55:12 21:59:28 58° 73° (ENE) 22:03:46 145.825 FM, Beacon 2401.500 USB
MaSat-1 02 Sep 22:13:26 22:17:59 56° 58° (ENE) 22:21:54 437.345 MHz
Saudisat 1A 02 Sep 22:19:23 22:23:36 48° 119° (ESE) 22:27:52 436.775 MHz
FUNcube-1 02 Sep 22:29:56 22:34:01 53° 72° (ENE) 22:38:14 145.950 - 145.970 MHz USB
KITSAT 1 02 Sep 22:50:38 22:57:55 39° 110° (ESE) 23:05:12 435.175 FM
HO-68 02 Sep 23:22:19 23:26:13 15° 272° (W) 23:30:08 435.675 MHz FM
Oscar 11 02 Sep 23:33:45 23:36:02 14° 270° (W) 23:38:20 145.825 FM, Beacon 2401.500 USB
PCSat 02 Sep 23:41:26 23:43:57 13° 31° (NNE) 23:46:27 145.825 MHz
MaSat-1 02 Sep 23:51:52 23:54:17 15° 260° (W) 23:56:32 437.345 MHz
Saudisat 1A 02 Sep 23:59:45 00:03:25 25° 318° (NW) 00:07:06 436.775 MHz
FUNcube-1 03 Sep 00:08:27 00:10:48 15° 270° (W) 00:13:11 145.950 - 145.970 MHz USB
KITSAT 1 03 Sep 00:45:08 00:53:03 56° 310° (NW) 01:01:01 435.175 FM
AO-40 03 Sep 00:45:59 01:07:42 10° 111° (ESE) 01:26:37 Beacon 2401.320
Sapphire 03 Sep 00:54:25 00:59:16 32° 47° (NE) 01:04:05 437.095 MHz 1200 baud AX-25 AFSK
PCSat 03 Sep 01:23:20 01:28:40 53° 54° (NE) 01:33:57 145.825 MHz
Oscar 19 03 Sep 01:29:21 01:30:52 11° 87° (E) 01:32:22 437.125 CW, 437.150 USB
Oscar 16 03 Sep 02:02:38 02:06:52 25° 94° (E) 02:11:05 437.025 USB, Beacon 2401.1428
ITAMSAT 1 03 Sep 02:09:15 02:10:55 11° 87° (E) 02:12:35 435.822 SSB
Uribyol 2 03 Sep 02:17:13 02:20:11 15° 90° (E) 02:23:09 436.500 FM
AO-27 03 Sep 02:37:18 02:41:19 22° 93° (E) 02:45:19 436.795 MHz FM
Sapphire 03 Sep 02:37:41 02:42:51 46° 246° (WSW) 02:47:59 437.095 MHz 1200 baud AX-25 AFSK
KITSAT 1 03 Sep 02:44:39 02:50:27 21° 336° (NNW) 02:56:15 435.175 FM
JAS-1B 03 Sep 02:58:49 03:04:42 34° 93° (E) 03:09:56 435.800 - 435.900 CW/SSB
Oscar 19 03 Sep 03:05:43 03:10:57 88° 104° (ESE) 03:16:09 437.125 CW, 437.150 USB
OPAL 03 Sep 03:05:57 03:07:50 12° 53° (NE) 03:09:44 ?
AO-Echo 03 Sep 03:06:10 03:10:40 43° 99° (E) 03:15:10 ?
PCSat 03 Sep 03:07:24 03:11:44 25° 252° (WSW) 03:16:02 145.825 MHz
SO-50 03 Sep 03:12:03 03:16:12 39° 117° (ESE) 03:20:27 436.795 FM
Gurwin Techsat 1B 03 Sep 03:24:24 03:28:57 28° 95° (E) 03:33:29 435.225 FM
Oscar 16 03 Sep 03:41:28 03:46:25 45° 291° (WNW) 03:51:19 437.025 USB, Beacon 2401.1428
Oscar 10/S400 03 Sep 03:43:04 04:51:55 33° 234° (SW) 08:51:02 145.825 - 145.975 CW/USB, Beacon 145.810 USB
ITAMSAT 1 03 Sep 03:45:54 03:51:08 89° 106° (ESE) 03:56:20 435.822 SSB
Uribyol 2 03 Sep 03:55:00 04:00:12 72° 287° (WNW) 04:05:23 436.500 FM
TMSAT-1 03 Sep 04:13:14 04:18:28 57° 101° (E) 04:23:40 436.925 FM
AO-27 03 Sep 04:16:06 04:21:06 49° 290° (WNW) 04:26:05 436.795 MHz FM
OPAL 03 Sep 04:40:45 04:45:49 75° 71° (ENE) 04:51:00 ?
KITSAT 1 03 Sep 04:45:03 04:49:35 16° 7° (N) 04:54:06 435.175 FM
AO-Echo 03 Sep 04:45:35 04:49:12 22° 296° (WNW) 04:52:49 ?
Oscar 19 03 Sep 04:46:53 04:49:34 14° 303° (WNW) 04:52:14 437.125 CW, 437.150 USB
JAS-1B 03 Sep 04:49:21 04:55:30 39° 297° (WNW) 05:00:55 435.800 - 435.900 CW/SSB
UOSAT-12 03 Sep 04:52:16 04:56:24 33° 116° (ESE) 05:00:37 437.025 FM, 437.400 FM
SO-50 03 Sep 04:52:52 04:56:51 30° 317° (NW) 05:00:56 436.795 FM
Gurwin Techsat 1B 03 Sep 05:04:05 05:09:02 40° 292° (WNW) 05:13:57 435.225 FM
Saudisat 1A 03 Sep 05:06:19 05:08:25 13° 31° (NNE) 05:10:31 436.775 MHz
ITAMSAT 1 03 Sep 05:27:18 05:29:53 14° 303° (WNW) 05:32:28 435.822 SSB
AO-7 03 Sep 05:30:48 05:38:57 57° 103° (ESE) 05:47:03 29.400 - 29.500 MHz
Uribyol 2 03 Sep 05:37:19 05:38:45 11° 305° (NW) 05:40:12 436.500 FM
Uosat F 03 Sep 05:38:06 05:43:06 66° 102° (ESE) 05:48:04 435.120 FM
RS-15 03 Sep 05:46:28 05:51:36 15° 96° (E) 05:56:41 29.354 - 29.394 USB, Beacon 29.352 USB
TMSAT-1 03 Sep 05:54:02 05:57:59 22° 298° (WNW) 06:01:55 436.925 FM
Hamsat 03 Sep 06:02:03 06:03:46 12° 88° (E) 06:05:27 145.90 MHz
OPAL 03 Sep 06:22:33 06:25:16 14° 269° (W) 06:28:02 ?
STRAND 1 03 Sep 06:30:55 06:35:35 38° 68° (ENE) 06:40:16 ?
JAS-2 03 Sep 06:32:05 06:36:37 27° 95° (E) 06:41:26 435.800 - 435.900 CW/SSB, 435.910 FM
UOSAT-12 03 Sep 06:32:14 06:36:31 35° 315° (NW) 06:40:53 437.025 FM, 437.400 FM
KITSAT 1 03 Sep 06:41:10 06:48:08 30° 36° (NE) 06:55:03 435.175 FM
Saudisat 1A 03 Sep 06:44:29 06:48:54 63° 52° (NE) 06:53:16 436.775 MHz
Uosat F 03 Sep 07:18:08 07:21:22 18° 300° (WNW) 07:24:37 435.120 FM
AO-7 03 Sep 07:24:04 07:31:25 37° 303° (WNW) 07:38:45 29.400 - 29.500 MHz
SO-67 03 Sep 07:33:53 07:35:56 15° 92° (E) 07:37:58 435.3500 MHz FM
Hamsat 03 Sep 07:35:52 07:40:12 67° 286° (WNW) 07:44:27 145.90 MHz
RS-15 03 Sep 07:50:46 08:01:40 67° 117° (ESE) 08:12:26 29.354 - 29.394 USB, Beacon 29.352 USB
STRAND 1 03 Sep 08:10:30 08:14:51 28° 265° (W) 08:19:14 ?
JAS-2 03 Sep 08:16:56 08:21:51 41° 291° (WNW) 08:27:09 435.800 - 435.900 CW/SSB, 435.910 FM
Saudisat 1A 03 Sep 08:25:19 08:27:59 16° 250° (WSW) 08:30:39 436.775 MHz
KITSAT 1 03 Sep 08:36:23 08:44:30 85° 239° (WSW) 08:52:34 435.175 FM
HO-68 03 Sep 08:57:58 09:02:20 17° 88° (E) 09:06:40 435.675 MHz FM
SO-67 03 Sep 09:05:57 09:09:06 33° 288° (WNW) 09:12:15 435.3500 MHz FM
UKube-1 03 Sep 09:40:49 09:42:54 13° 90° (E) 09:44:58 145.840 MHz, 145.915 MHz
ISS 03 Sep 10:01:44 10:04:58 51° 143° (SE) 10:08:13 145.800 FM
SO-50 03 Sep 10:02:27 10:04:54 14° 30° (NNE) 10:07:22 436.795 FM
RS-15 03 Sep 10:04:20 10:14:41 44° 323° (NW) 10:25:03 29.354 - 29.394 USB, Beacon 29.352 USB
FUNcube-1 03 Sep 10:20:35 10:20:53 10° 87° (E) 10:21:12 145.950 - 145.970 MHz USB
